TimeEDT,TemperatureF,Dew PointF,Humidity,Sea Level PressureIn,VisibilityMPH,Wind Direction,Wind SpeedMPH,Gust SpeedMPH,PrecipitationIn,Events,Conditions,WindDirDegrees,DateUTC
12:53 AM,59.0,46.0,62,30.09,10.0,Calm,Calm,-,N/A,,Clear,0,2013-05-08 04:53:00
1:53 AM,53.1,46.0,77,30.09,10.0,SSE,3.5,-,N/A,,Clear,150,2013-05-08 05:53:00
2:53 AM,55.0,46.0,72,30.08,10.0,Calm,Calm,-,N/A,,Clear,0,2013-05-08 06:53:00
3:53 AM,53.1,46.0,77,30.09,10.0,ESE,3.5,-,N/A,,Clear,110,2013-05-08 07:53:00
4:53 AM,54.0,46.9,77,30.09,10.0,East,3.5,-,N/A,,Clear,80,2013-05-08 08:53:00
5:53 AM,50.0,46.0,86,30.09,10.0,NW,6.9,-,N/A,,Partly Cloudy,320,2013-05-08 09:53:00
6:53 AM,55.0,48.9,80,30.11,10.0,SSE,4.6,-,N/A,,Overcast,150,2013-05-08 10:53:00
7:53 AM,59.0,53.1,81,30.11,10.0,ESE,5.8,-,N/A,,Overcast,120,2013-05-08 11:53:00
8:53 AM,66.0,55.9,70,30.11,10.0,ESE,8.1,-,N/A,,Partly Cloudy,120,2013-05-08 12:53:00
9:53 AM,70.0,57.0,63,30.10,10.0,SE,11.5,-,N/A,,Mostly Cloudy,140,2013-05-08 13:53:00
10:53 AM,70.0,55.9,61,30.08,10.0,SSE,12.7,-,N/A,,Mostly Cloudy,150,2013-05-08 14:53:00
11:53 AM,70.0,55.9,61,30.07,10.0,SE,13.8,-,N/A,,Overcast,130,2013-05-08 15:53:00
12:53 PM,69.1,55.0,61,30.06,10.0,SE,11.5,-,0.00,Rain,Light Rain,140,2013-05-08 16:53:00
1:53 PM,69.1,57.0,65,30.06,10.0,SE,11.5,19.6,0.00,Rain,Light Rain,130,2013-05-08 17:53:00
2:53 PM,66.0,59.0,78,30.05,9.0,ESE,8.1,-,0.01,Rain,Light Rain,120,2013-05-08 18:53:00
3:53 PM,66.9,57.9,73,30.03,10.0,ENE,9.2,-,0.00,Rain,Light Rain,70,2013-05-08 19:53:00
4:53 PM,64.9,59.0,81,30.01,10.0,East,6.9,-,0.00,Rain,Light Rain,80,2013-05-08 20:53:00
5:53 PM,64.0,61.0,90,30.00,10.0,North,-9999.0,-,0.04,,Overcast,0,2013-05-08 21:53:00
6:53 PM,63.0,61.0,93,29.98,10.0,NE,4.6,-,0.01,Rain,Light Rain,40,2013-05-08 22:53:00
7:53 PM,62.1,59.0,90,29.96,10.0,East,8.1,-,0.01,,Partly Cloudy,90,2013-05-08 23:53:00
8:26 PM,62.1,59.0,90,29.96,10.0,East,6.9,-,N/A,,Mostly Cloudy,80,2013-05-09 00:26:00
8:38 PM,62.1,59.0,90,29.96,10.0,East,5.8,-,N/A,,Scattered Clouds,80,2013-05-09 00:38:00
8:53 PM,61.0,57.9,90,29.96,10.0,East,5.8,-,N/A,,Partly Cloudy,90,2013-05-09 00:53:00
9:53 PM,61.0,57.9,90,29.97,10.0,East,9.2,-,N/A,,Partly Cloudy,90,2013-05-09 01:53:00
10:53 PM,61.0,57.0,87,29.98,10.0,East,9.2,-,N/A,,Scattered Clouds,100,2013-05-09 02:53:00
11:53 PM,61.0,57.9,90,29.97,10.0,East,9.2,-,0.00,,Mostly Cloudy,100,2013-05-09 03:53:00